Regional Weather Roundup
Issued by NWS

Home | Current Version | Previous Version | Graphics & Text | Print | Product List | Glossary On
Versions: 1 2 3 4 5 6 7 8 9 10 11 12 13 14 15 16 17 18 19 20 21 22 23 24 25 26 27 28 29 30 31 32 33 34 35 36 37 38 39 40 41 42 43 44 45 46 47 48 49 50
000
ASUS45 KBOU 251407
RWRCO

WEATHER ROUNDUP FOR COLORADO
NATIONAL WEATHER SERVICE DENVER/BOULDER CO
800 AM MDT MON MAY 25 2015

NOTE: "FAIR" INDICATES FEW OR NO CLOUDS BELOW 12000 FEET WITH NO
SIGNIFICANT WEATHER AND/OR OBSTRUCTIONS TO VISIBILITY.

COZ001>005-013-030-031-251500-
...NORTHWEST COLORADO...

CITY           SKY/WX    TMP DP  RH WIND       PRES   REMARKS
CRAIG          CLOUDY    45  41  86 E5        30.01S
HAYDEN         CLOUDY    41  36  81 CALM      30.01S
MEEKER         LGT RAIN  44  40  85 E3        30.02R
MOUNT WERNER   NOT AVBL
STEAMBOAT SPGS CLOUDY    40  37  89 CALM      30.02R
WALDEN         CLOUDY    36  32  87 S5        30.02R
$$

COZ006>008-011-251500-
...WEST CENTRAL VALLEYS...

CITY           SKY/WX    TMP DP  RH WIND       PRES   REMARKS
GRAND JUNCTION CLOUDY    49  45  86 E7        29.98R
MONTROSE       MOSUNNY   46  41  82 SE10      30.02S
EAGLE          PTSUNNY   41  37  87 CALM      30.04S
RIFLE          CLOUDY    46  42  86 CALM      30.01R
DELTA          CLOUDY    49  45  85 MISG      30.01R
NUCLA          CLOUDY    46  43  87 CALM      30.04R
$$

COZ017>023-064>068-251500-
...SOUTHWEST COLORADO...

CITY           SKY/WX    TMP DP  RH WIND       PRES   REMARKS
DURANGO        LGT RAIN  43  42  97 S5        30.03R
CORTEZ         CLOUDY    50  45  83 E8        30.01R
PAGOSA SPRINGS CLOUDY    40  40 100 N5        30.07R
TELLURIDE      RAIN      38  37  97 CALM      30.10R
WOLF CREEK PAS NOT AVBL
$$

COZ009-010-012-014-032>034-037-058>063-251500-
...CENTRAL COLORADO...

CITY           SKY/WX    TMP DP  RH WIND       PRES   REMARKS
ASPEN          LGT RAIN  39  35  86 CALM      30.03R
BUENA VISTA    MOSUNNY   44  34  69 CALM      30.00S
COPPER MTN     CLOUDY    28  23  80 W17G23    30.11R WCI  16
BERTHOUD PASS  CLOUDY    21  14  73 NW23G31   30.09S WCI   5
COTTONWOOD PAS PTSUNNY   41  32  70 SW7       30.05R
GUNNISON       PTSUNNY   37  32  81 CALM      30.07R
KREMMLING      PTSUNNY   41  34  75 CALM      30.04R
LEADVILLE      CLOUDY    33  29  85 N6        30.05R WCI  28
SALIDA         MOSUNNY   47  39  74 N13       30.06S
SUNLIGHT       CLOUDY   N/A N/A N/A CALM        N/A  FOG
WILKERSON PASS MOSUNNY   30  28  93 MISG      30.10R
$$

COZ069>075-251500-
...SAN LUIS VALLEY/SANGRE DE CRISTO MOUNTAINS...

CITY           SKY/WX    TMP DP  RH WIND       PRES   REMARKS
ALAMOSA        MOSUNNY   41  35  79 CALM      30.02R
LA VETA PASS   PTSUNNY  N/A N/A N/A MISG      30.06R
SAGUACHE       PTSUNNY   41  36  81 NW6       30.04R
$$

COZ035-036-038>040-251500-
...NORTHERN COLORADO FRONT RANGE...

CITY           SKY/WX    TMP DP  RH WIND       PRES   REMARKS
DENVER INTL AP PTSUNNY   51  43  74 SW3       29.91R
DMNS CITY PARK   N/A     52  41  65 SE3       29.91S
AURORA         MOSUNNY   50  41  72 SW5       29.93R
FRONT RANGE AP NOT AVBL
ERIE MUNI ARPT SUNNY     48  43  82 CALM      29.90S
BOULDER MUN AP SUNNY     46  41  81 CALM      29.90R
CENTENNIAL     MOSUNNY   50  40  68 W3        29.93R
BROOMFIELD     NOT AVBL
FORT COLLINS   PTSUNNY   48  45  87 CALM      29.92R
LONGMONT       PTSUNNY   50  43  77 CALM      29.92R
$$

COZ041-046-047-076>085-087-088-251500-
...PIKES PEAK/PALMER DIVIDE AND SOUTHERN FOOTHILLS...

CITY           SKY/WX    TMP DP  RH WIND       PRES   REMARKS
COLO. SPRINGS  PTSUNNY   53  38  56 NW6       29.94R
A. F. ACADEMY  MOSUNNY   50  36  59 NE8       29.94R
ELLICOTT       NOT AVBL
FALCON         CLOUDY    49  35  58 NW5       29.96S
FORT CARSON    NOT AVBL
LIMON          PTSUNNY   49  44  83 NW8       29.92R
MONUMENT HILL  NOT AVBL
TRINIDAD       MOSUNNY   52  42  69 CALM      29.91R
$$

COZ042>045-048>051-090-091-251500-
...NORTHEAST COLORADO...

CITY           SKY/WX    TMP DP  RH WIND       PRES   REMARKS
GREELEY ARPT   CLOUDY    50  45  81 CALM      29.90S
AKRON          MOSUNNY   51  47  86 NW14      29.87R
BURLINGTON     MOSUNNY   54  47  77 W12       29.87R
WRAY           PTSUNNY   54  51  88 W9        29.85R
STERLING       MOSUNNY   54  48  82 NW12      29.85R
HOLYOKE        NOT AVBL
FORT MORGAN    PTSUNNY   53  47  79 NW12      29.89R
$$

COZ086-089-092>099-251500-
...SOUTHEAST COLORADO...

CITY           SKY/WX    TMP DP  RH WIND       PRES   REMARKS
PUEBLO         PTSUNNY   50  45  83 CALM      29.89R
LA JUNTA       SUNNY     54  46  74 CALM      29.88R
LAMAR          SUNNY     52  48  86 NW5       29.85S
SPRINGFIELD      N/A     57  46  66 N12       29.86R
$$


USA.gov is the U.S. government's official web portal to all federal, state and local government web resources and services.